College Station, TX

3:03 AM CST on February 24, 2017 (GMT -0600)
Easterwood

Weather History for KCLL - January, 2012

Change the Weather History Date:

Tuesday, January 17, 2012

  Actual Average Record
Temperature  
Mean Temperature 61 °F 51 °F  
Max Temperature 77 °F 61 °F 79 °F (1999)
Min Temperature 44 °F 41 °F 0 °F (1930)
Degree Days  
Heating Degree Days 4 14  
Month to date heating degree days 186 251  
Since 1 July heating degree days 767 887  
Cooling Degree Days 0 0  
Month to date cooling degree days 4 0  
Year to date cooling degree days 4 0  
Growing Degree Days 10 (Base 50)    
Moisture  
Dew Point 57 °F    
Average Humidity 65    
Maximum Humidity 93    
Minimum Humidity 37    
Precipitation  
Precipitation 0.03 in 0.11 in 1.24 in (1956)
Month to date precipitation 0.53 1.75  
Year to date precipitation 0.53 1.75  
Sea Level Pressure  
Sea Level Pressure 30.09 in    
Wind  
Wind Speed 12 mph (West)    
Max Wind Speed 24 mph    
Max Gust Speed 29 mph    
Visibility 8 miles    
Events Rain    
T = Trace of Precipitation, MM = Missing Value Source: NWS Daily Summary

Daily Weather History Graph

Daily Weather History Graph

Search for Another Location

Airport or City:

Trip Planner

Search our weather history database for the weather conditions in past years. The results will help you decide how hot, cold, wet, or windy it might be!

Date:

Astronomy

Jan. 17, 2012 Rise Set
Actual Time 7:23 AM CST 5:48 PM CST
Civil Twilight 6:57 AM CST 6:14 PM CST
Nautical Twilight 6:27 AM CST 6:43 PM CST
Astronomical Twilight 5:58 AM CST 7:12 PM CST
Moon 1:46 AM CST (1/17) 12:41 PM CST (1/17)
Length of Visible Light 11h 16m
Length of Day
10h 25m
Waning Crescent, 35% of the Moon is Illuminated
Jan 17
Waning Crescent
Jan 23
New
Jan 30
First Quarter
Feb 7
Full
Feb 14
Last Quarter

Hourly Weather History & Observations

Time (CST) Temp. Windchill Dew Point Humidity Pressure Visibility Wind Dir Wind Speed Gust Speed Precip Events Conditions
12:53 AM 71.1 °F - 64.9 °F 81% 29.97 in 10.0 mi South 12.7 mph - N/A   Overcast
1:53 AM 71.1 °F - 66.0 °F 84% 29.96 in 10.0 mi South 11.5 mph - N/A   Overcast
2:53 AM 71.1 °F - 64.9 °F 81% 29.96 in 10.0 mi South 10.4 mph - N/A   Overcast
3:53 AM 71.1 °F - 64.9 °F 81% 29.95 in 10.0 mi South 10.4 mph - N/A   Overcast
4:53 AM 70.0 °F - 64.9 °F 84% 29.96 in 10.0 mi South 8.1 mph - N/A   Overcast
5:53 AM 70.0 °F - 64.9 °F 84% 30.01 in 10.0 mi West 5.8 mph - N/A   Overcast
6:53 AM 66.9 °F - 66.0 °F 97% 30.04 in 4.0 mi Calm Calm - 0.02 in Rain Light Rain
7:33 AM 66.2 °F - 66.2 °F 100% 30.06 in 4.0 mi West 3.5 mph - 0.01 in   Overcast
7:50 AM 66.2 °F - 66.2 °F 100% 30.06 in 2.5 mi South 4.6 mph - 0.01 in   Overcast
7:53 AM 66.9 °F - 66.0 °F 97% 30.05 in 3.0 mi South 3.5 mph - 0.01 in   Overcast
7:56 AM 66.2 °F - 66.2 °F 100% 30.06 in 2.5 mi South 3.5 mph - N/A   Overcast
8:11 AM 66.2 °F - 66.2 °F 100% 30.05 in 1.2 mi SSE 11.5 mph - N/A   Overcast
8:21 AM 66.2 °F - 66.2 °F 100% 30.04 in 2.0 mi South 11.5 mph - N/A   Overcast
8:32 AM 66.2 °F - 66.2 °F 100% 30.05 in 4.0 mi Variable 3.5 mph - N/A   Overcast
8:44 AM 68.0 °F - 66.2 °F 94% 30.06 in 4.0 mi SW 3.5 mph - N/A   Overcast
8:53 AM 68.0 °F - 66.9 °F 96% 30.05 in 4.0 mi SW 4.6 mph - N/A   Overcast
9:44 AM 69.8 °F - 66.2 °F 88% 30.08 in 10.0 mi SW 6.9 mph - N/A   Scattered Clouds
9:53 AM 71.1 °F - 66.9 °F 87% 30.07 in 10.0 mi SW 8.1 mph - N/A   Scattered Clouds
10:00 AM 71.6 °F - 66.2 °F 83% 30.09 in 10.0 mi SW 6.9 mph - N/A   Mostly Cloudy
10:03 AM 71.6 °F - 66.2 °F 83% 30.09 in 10.0 mi WSW 6.9 mph - N/A   Scattered Clouds
10:26 AM 71.6 °F - 66.2 °F 83% 30.09 in 10.0 mi West 8.1 mph - N/A   Mostly Cloudy
10:34 AM 71.6 °F - 66.2 °F 83% 30.09 in 10.0 mi WNW 5.8 mph - N/A   Scattered Clouds
10:42 AM 73.4 °F - 66.2 °F 78% 30.10 in 10.0 mi WNW 8.1 mph - N/A   Mostly Cloudy
10:53 AM 72.0 °F - 64.9 °F 78% 30.09 in 10.0 mi NW 11.5 mph - N/A   Mostly Cloudy
11:13 AM 75.2 °F - 62.6 °F 65% 30.10 in 10.0 mi NNW 10.4 mph - N/A   Scattered Clouds
11:53 AM 75.9 °F - 59.0 °F 56% 30.07 in 10.0 mi NNW 10.4 mph - N/A   Scattered Clouds
12:53 PM 75.9 °F - 53.1 °F 45% 30.06 in 10.0 mi NNW 17.3 mph 24.2 mph N/A   Partly Cloudy
1:53 PM 72.0 °F - 50.0 °F 46% 30.08 in 10.0 mi North 24.2 mph 27.6 mph N/A   Clear
2:53 PM 66.9 °F - 44.1 °F 44% 30.10 in 10.0 mi NNW 17.3 mph 24.2 mph N/A   Clear
3:53 PM 66.0 °F - 39.9 °F 38% 30.11 in 10.0 mi North 15.0 mph - N/A   Clear
4:53 PM 62.1 °F - 39.0 °F 43% 30.13 in 10.0 mi North 16.1 mph - N/A   Clear
5:53 PM 55.9 °F - 37.0 °F 49% 30.16 in 10.0 mi North 12.7 mph - N/A   Clear
6:53 PM 54.0 °F - 34.0 °F 47% 30.20 in 10.0 mi North 17.3 mph - N/A   Clear
7:53 PM 50.0 °F - 33.1 °F 52% 30.22 in 10.0 mi North 16.1 mph - N/A   Clear
8:53 PM 48.0 °F - 32.0 °F 54% 30.25 in 10.0 mi North 12.7 mph - N/A   Clear
9:53 PM 46.9 °F - 28.9 °F 50% 30.26 in 10.0 mi North 15.0 mph 21.9 mph N/A   Clear
10:53 PM 45.0 °F 39.3 °F 28.9 °F 53% 30.28 in 10.0 mi North 11.5 mph 18.4 mph N/A   Clear
11:53 PM 44.1 °F 37.1 °F 26.1 °F 49% 30.29 in 10.0 mi North 15.0 mph - N/A   Clear